Location: Jaite
(41.2884°N, 81.5737°W)
Time: 13:47:25
(UTC+00:00)

Cosmos 1802 Rocket - Pass Details

Date: 15 November 2025
Orbit: 953 x 1011 km, 82.9° (Epoch: 06 December)

Event Time Altitude Azimuth Distance (km) Brightness Sun altitude
Rises 09:59:41 0° 347° (NNW) 3,718 6.9 -25.4°
Enters shadow 10:00:35 - 346° (NNW) 3,382 6.7 -25.2°
Exits shadow 10:07:00 45° 309° (NW) 1,314 4.3 -24.0°
Maximum altitude 10:08:23 53° 269° (W) 1,184 4.0 -23.7°
Drops below altitude 10° 10:14:21 10° 194° (SSW) 2,700 6.2 -22.6°
Sets 10:16:53 0° 189° (S) 3,636 7.0 -22.1°
